This is the latest recevied weather packets stored in our database for station/object KD9ZDW. If no packets are shown the sender has not sent any weather packets the latest 10 day(s).
| Time | Temp. | Humidity | Pressure | Rain* | Wind** | Luminosity | Snow |
|---|---|---|---|---|---|---|---|
| 1777725773 | 3.33° C | 71% | 1020.7 hPa | 0 mm | - | 198 W/m² | - |
| 1777725472 | 3.33° C | 71% | 1020.9 hPa | 0 mm | - | 183 W/m² | - |
| 1777725169 | 3.33° C | 73% | 1020.9 hPa | 0 mm | - | 170 W/m² | - |
| 1777724865 | 3.33° C | 73% | 1020.7 hPa | 0 mm | - | 156 W/m² | - |
| 1777724561 | 2.78° C | 74% | 1020.8 hPa | 0 mm | - | 143 W/m² | - |
| 1777724260 | 2.78° C | 75% | 1020.6 hPa | 0 mm | - | 132 W/m² | - |
| 1777723957 | 2.78° C | 75% | 1020.8 hPa | 0 mm | - | 120 W/m² | - |
| 1777723653 | 2.22° C | 76% | 1020.8 hPa | 0 mm | - | 108 W/m² | - |
| 1777723350 | 2.22° C | 77% | 1020.7 hPa | 0 mm | - | 48 W/m² | - |
| 1777723048 | 2.22° C | 78% | 1021 hPa | 0 mm | - | 86 W/m² | - |
| 1777722745 | 1.67° C | 79% | 1020.8 hPa | 0 mm | - | 77 W/m² | - |
| 1777722440 | 1.67° C | 80% | 1020.7 hPa | 0 mm | - | 67 W/m² | - |
| 1777722138 | 1.67° C | 82% | 1020.8 hPa | 0 mm | - | 58 W/m² | - |
| 1777721835 | 1.11° C | 83% | 1020.8 hPa | 0 mm | - | 51 W/m² | - |
| 1777721533 | 0.56° C | 86% | 1020.7 hPa | 0 mm | - | 35 W/m² | - |
| 1777721231 | 0.56° C | 87% | 1020.6 hPa | 0 mm | - | 29 W/m² | - |
| 1777720928 | 0° C | 88% | 1020.8 hPa | 0 mm | - | 18 W/m² | - |
| 1777720625 | 0° C | 88% | 1020.6 hPa | 0 mm | - | 17 W/m² | - |
| 1777720323 | 0° C | 88% | 1020.5 hPa | 0 mm | - | 14 W/m² | - |
| 1777720020 | 0° C | 88% | 1020.5 hPa | 0 mm | - | 12 W/m² | - |
| 1777719717 | 0° C | 88% | 1020.4 hPa | 0 mm | - | 10 W/m² | - |
| 1777719415 | -0.56° C | 88% | 1020.4 hPa | 0 mm | - | 8 W/m² | - |
| 1777719112 | -0.56° C | 88% | 1020.4 hPa | 0 mm | - | 6 W/m² | - |
| 1777718809 | -0.56° C | 88% | 1020.4 hPa | 0 mm | - | 4 W/m² | - |
| 1777718506 | -0.56° C | 87% | 1020.2 hPa | 0 mm | - | 3 W/m² | - |
* Rain latest hour (hover to see other rain measurements)
** Current wind speed in m/s (hover to see current wind gust speed)